RYR1309 EBCI-LIEE

Flight info

Callsign RYR1309
Flight time 1h 49m
Altitude 35000
Route RITAX UT27 ROUSY DCT GTQ DCT POGOL DCT LASAT DCT DEVDI DCT ODINA DCT EVANO DCT KEMMI DCT ERTEV DCT TORTU DCT OKROK DCT AJO DCT CORSI DCT UPDUT DCT INDUM DCT MINKA DCT ORVEX DCT BOLOT M858 RAMEN M732 KOVAS
Aircraft B738/M-SDE2E3FGHIRWXY/LB1

Departure

Time 2026-05-08 09:12
Airport Brussels South Charleroi Airport (EBCI)

Arrival

Time 2026-05-08 11:01
Airport Cagliari Elmas Airport (LIEE)
Time Latitude Longitude Altitude Speed Heading
2026-05-08 08:56 50.46806 4.46874 612 ft 0 kts 335°
2026-05-08 09:05 50.46804 4.46876 612 ft 2 kts 335°
2026-05-08 09:05 50.46787 4.46888 624 ft 3 kts 335°
2026-05-08 09:05 50.46770 4.46900 625 ft 3 kts 346°
2026-05-08 09:06 50.46755 4.46900 627 ft 3 kts 42°
2026-05-08 09:06 50.46748 4.46886 627 ft 1 kts 65°
2026-05-08 09:06 50.46742 4.46863 627 ft 2 kts 65°
2026-05-08 09:06 50.46739 4.46856 621 ft 0 kts 65°
2026-05-08 09:08 50.46740 4.46856 612 ft 0 kts 65°
2026-05-08 09:08 50.46744 4.46872 620 ft 3 kts 65°
2026-05-08 09:09 50.46763 4.46936 624 ft 10 kts 66°
2026-05-08 09:09 50.46806 4.47088 615 ft 20 kts 66°
2026-05-08 09:09 50.46855 4.47283 612 ft 14 kts 97°
2026-05-08 09:09 50.46793 4.47357 620 ft 11 kts 155°
2026-05-08 09:10 50.46722 4.47409 617 ft 11 kts 155°
2026-05-08 09:10 50.46653 4.47458 617 ft 9 kts 155°
2026-05-08 09:10 50.46618 4.47451 614 ft 4 kts 228°
2026-05-08 09:10 50.46604 4.47410 624 ft 4 kts 244°
2026-05-08 09:11 50.46591 4.47369 613 ft 5 kts 246°
2026-05-08 09:11 50.46518 4.47116 616 ft 65 kts 245°
2026-05-08 09:11 50.46209 4.46051 620 ft 146 kts 246°
2026-05-08 09:11 50.45708 4.44279 794 ft 200 kts 246°
2026-05-08 09:12 50.45115 4.42173 1581 ft 219 kts 246°
2026-05-08 09:12 50.44498 4.39931 2521 ft 227 kts 246°
2026-05-08 09:12 50.43889 4.37656 3368 ft 232 kts 247°
2026-05-08 09:12 50.43226 4.35276 4014 ft 245 kts 245°
2026-05-08 09:13 50.42496 4.32765 4636 ft 257 kts 244°
2026-05-08 09:13 50.41755 4.30318 5886 ft 243 kts 244°
2026-05-08 09:13 50.40919 4.28057 6976 ft 239 kts 225°
2026-05-08 09:13 50.39470 4.26649 7280 ft 260 kts 192°
2026-05-08 09:14 50.37622 4.26701 7809 ft 272 kts 162°
2026-05-08 09:14 50.36004 4.28149 8561 ft 276 kts 138°
2026-05-08 09:14 50.34715 4.30401 9359 ft 281 kts 128°
2026-05-08 09:14 50.33552 4.32896 10123 ft 286 kts 126°
2026-05-08 09:15 50.32389 4.35502 10595 ft 302 kts 126°
2026-05-08 09:15 50.31138 4.38306 10781 ft 326 kts 126°
2026-05-08 09:15 50.29784 4.41309 10951 ft 349 kts 126°
2026-05-08 09:15 50.28333 4.44488 11252 ft 365 kts 126°
2026-05-08 09:16 50.26830 4.47750 11828 ft 373 kts 127°
2026-05-08 09:16 50.25302 4.51041 12532 ft 376 kts 127°
2026-05-08 09:16 50.23746 4.54373 13224 ft 380 kts 127°
2026-05-08 09:16 50.22173 4.57727 13884 ft 385 kts 128°
2026-05-08 09:17 50.20575 4.61122 14492 ft 389 kts 128°
2026-05-08 09:17 50.18992 4.64481 15175 ft 390 kts 128°
2026-05-08 09:17 50.17376 4.67903 15856 ft 392 kts 128°
2026-05-08 09:17 50.15753 4.71335 16501 ft 394 kts 128°
2026-05-08 09:18 50.14120 4.74784 17128 ft 397 kts 128°
2026-05-08 09:18 50.12474 4.78255 17756 ft 400 kts 128°
2026-05-08 09:18 50.10812 4.81755 18364 ft 402 kts 128°
2026-05-08 09:18 50.09138 4.85275 18885 ft 405 kts 128°
2026-05-08 09:19 50.07452 4.88817 19379 ft 409 kts 128°
2026-05-08 09:19 50.05748 4.92392 19865 ft 412 kts 128°
2026-05-08 09:19 50.04612 4.94770 20185 ft 414 kts 128°
2026-05-08 09:19 50.02323 4.99561 20823 ft 419 kts 128°
2026-05-08 09:20 50.00577 5.03208 21294 ft 422 kts 128°
2026-05-08 09:20 49.98820 5.06875 21757 ft 425 kts 128°
2026-05-08 09:20 49.97044 5.10574 22219 ft 428 kts 128°
2026-05-08 09:20 49.95255 5.14296 22655 ft 431 kts 129°
2026-05-08 09:21 49.94036 5.16828 22960 ft 434 kts 129°
2026-05-08 09:21 49.92249 5.20537 23382 ft 437 kts 129°
2026-05-08 09:22 49.81117 5.43527 25519 ft 452 kts 129°
2026-05-08 09:23 49.79221 5.47423 25854 ft 454 kts 129°
2026-05-08 09:23 49.77316 5.51330 26175 ft 456 kts 129°
2026-05-08 09:23 49.75400 5.55255 26488 ft 458 kts 129°
2026-05-08 09:23 49.73466 5.59211 26805 ft 461 kts 129°
2026-05-08 09:24 49.71529 5.63168 27108 ft 463 kts 129°
2026-05-08 09:24 49.69580 5.67143 27409 ft 465 kts 129°
2026-05-08 09:24 49.67624 5.71127 27705 ft 467 kts 129°
2026-05-08 09:24 49.65655 5.75132 27983 ft 469 kts 129°
2026-05-08 09:25 49.63674 5.79155 28277 ft 471 kts 129°
2026-05-08 09:25 49.61690 5.83177 28633 ft 471 kts 129°
2026-05-08 09:25 49.59705 5.87195 29083 ft 470 kts 129°
2026-05-08 09:25 49.57730 5.91189 29543 ft 468 kts 130°
2026-05-08 09:26 49.55754 5.95179 29954 ft 467 kts 129°
2026-05-08 09:26 49.53801 5.99116 30289 ft 467 kts 130°
2026-05-08 09:26 49.51828 6.03088 30598 ft 467 kts 130°
2026-05-08 09:26 49.49855 6.07052 30942 ft 466 kts 130°
2026-05-08 09:27 49.47846 6.10934 31280 ft 463 kts 134°
2026-05-08 09:27 49.45537 6.14363 31580 ft 459 kts 143°
2026-05-08 09:27 49.43053 6.17430 31917 ft 457 kts 144°
2026-05-08 09:27 49.40551 6.20452 32236 ft 457 kts 144°
2026-05-08 09:28 49.38056 6.23460 32541 ft 456 kts 144°
2026-05-08 09:28 49.35565 6.26485 32858 ft 455 kts 144°
2026-05-08 09:28 49.33086 6.29515 33192 ft 454 kts 144°
2026-05-08 09:28 49.30625 6.32538 33521 ft 453 kts 143°
2026-05-08 09:29 49.28173 6.35555 33821 ft 452 kts 144°
2026-05-08 09:29 49.25714 6.38581 34113 ft 452 kts 144°
2026-05-08 09:29 49.23297 6.41553 34342 ft 451 kts 144°
2026-05-08 09:29 49.20847 6.44559 34511 ft 452 kts 144°
2026-05-08 09:30 49.18386 6.47575 34673 ft 454 kts 144°
2026-05-08 09:30 49.15919 6.50593 34866 ft 454 kts 144°
2026-05-08 09:30 49.13452 6.53608 35067 ft 453 kts 144°
2026-05-08 09:31 49.08506 6.59641 35092 ft 456 kts 144°
2026-05-08 09:31 49.03560 6.65658 35092 ft 455 kts 144°
2026-05-08 09:32 48.98166 6.70476 35101 ft 446 kts 165°
2026-05-08 09:32 48.95151 6.71490 35086 ft 442 kts 176°
2026-05-08 09:32 48.92093 6.71564 35106 ft 439 kts 184°
2026-05-08 09:33 48.85977 6.71215 35089 ft 439 kts 184°
2026-05-08 09:33 48.79899 6.70896 35082 ft 440 kts 184°
2026-05-08 09:34 48.73761 6.70636 35082 ft 441 kts 183°
2026-05-08 09:34 48.67621 6.70400 35084 ft 442 kts 183°
2026-05-08 09:35 48.61460 6.70165 35074 ft 443 kts 183°
2026-05-08 09:35 48.55303 6.69928 35071 ft 444 kts 183°
2026-05-08 09:36 48.49119 6.69690 35071 ft 444 kts 183°
2026-05-08 09:36 48.42933 6.69452 35063 ft 445 kts 183°
2026-05-08 09:37 48.36775 6.69216 35067 ft 445 kts 183°
2026-05-08 09:37 48.30571 6.68977 35060 ft 445 kts 183°
2026-05-08 09:38 48.24380 6.68739 35060 ft 445 kts 183°
2026-05-08 09:38 48.18207 6.69300 35049 ft 449 kts 163°
2026-05-08 09:38 48.15386 6.71286 35056 ft 452 kts 148°
2026-05-08 09:39 48.12966 6.74325 35049 ft 457 kts 133°
2026-05-08 09:39 48.09185 6.82006 35062 ft 459 kts 127°
2026-05-08 09:40 48.05522 6.89860 35057 ft 461 kts 127°
2026-05-08 09:40 48.01807 6.97668 35072 ft 461 kts 128°
2026-05-08 09:41 47.98072 7.05391 35073 ft 462 kts 128°
2026-05-08 09:41 47.94291 7.13165 35065 ft 462 kts 128°
2026-05-08 09:42 47.90507 7.20925 35077 ft 462 kts 128°
2026-05-08 09:42 47.86717 7.28679 35077 ft 463 kts 128°
2026-05-08 09:43 47.82935 7.36399 35068 ft 464 kts 128°
2026-05-08 09:43 47.79124 7.44158 35073 ft 464 kts 128°
2026-05-08 09:44 47.75178 7.51778 35067 ft 462 kts 137°
2026-05-08 09:44 47.70188 7.57525 35068 ft 455 kts 155°
2026-05-08 09:45 47.64485 7.61553 35071 ft 453 kts 158°
2026-05-08 09:45 47.58754 7.65478 35070 ft 454 kts 158°
2026-05-08 09:46 47.53029 7.69447 35073 ft 454 kts 158°
2026-05-08 09:46 47.50198 7.71423 35070 ft 454 kts 158°
2026-05-08 09:47 47.44491 7.75412 35072 ft 453 kts 158°
2026-05-08 09:47 47.38784 7.79398 35059 ft 453 kts 158°
2026-05-08 09:48 47.33120 7.83341 35060 ft 452 kts 158°
2026-05-08 09:48 47.27429 7.87293 35063 ft 452 kts 158°
2026-05-08 09:49 47.21744 7.91230 35067 ft 451 kts 158°
2026-05-08 09:49 47.16061 7.95156 35064 ft 451 kts 158°
2026-05-08 09:50 47.10383 7.99070 35063 ft 450 kts 159°
2026-05-08 09:50 47.04749 8.02945 35066 ft 449 kts 159°
2026-05-08 09:51 46.99090 8.06827 35063 ft 449 kts 159°
2026-05-08 09:51 46.93438 8.10697 35077 ft 448 kts 159°
2026-05-08 09:52 46.87785 8.14557 35080 ft 447 kts 159°
2026-05-08 09:52 46.82153 8.18394 35055 ft 446 kts 159°
2026-05-08 09:53 46.76533 8.22214 35071 ft 444 kts 159°
2026-05-08 09:53 46.70914 8.26024 35048 ft 445 kts 160°
2026-05-08 09:54 46.65330 8.29803 35051 ft 446 kts 160°
2026-05-08 09:54 46.59696 8.33605 35058 ft 447 kts 160°
2026-05-08 09:55 46.54045 8.37411 35073 ft 447 kts 160°
2026-05-08 09:55 46.48404 8.41202 35079 ft 445 kts 160°
2026-05-08 09:56 46.42795 8.44964 35090 ft 443 kts 160°
2026-05-08 09:56 46.37234 8.48685 35082 ft 442 kts 160°
2026-05-08 09:57 46.28867 8.54266 35079 ft 438 kts 160°
2026-05-08 09:57 46.23372 8.57921 35076 ft 436 kts 160°
2026-05-08 09:58 46.17854 8.61584 35058 ft 435 kts 160°
2026-05-08 09:58 46.12369 8.65183 35054 ft 430 kts 163°
2026-05-08 09:59 46.06688 8.67132 35094 ft 418 kts 179°
2026-05-08 09:59 46.00860 8.67767 35077 ft 421 kts 180°
2026-05-08 10:00 45.95016 8.68446 35077 ft 423 kts 179°
2026-05-08 10:00 45.89146 8.69173 35081 ft 424 kts 179°
2026-05-08 10:01 45.83236 8.69918 35077 ft 426 kts 179°
2026-05-08 10:01 45.77363 8.70657 35072 ft 426 kts 179°
2026-05-08 10:02 45.71442 8.71400 35075 ft 426 kts 179°
2026-05-08 10:02 45.65542 8.72138 35077 ft 425 kts 179°
2026-05-08 10:03 45.59663 8.72871 35077 ft 424 kts 179°
2026-05-08 10:03 45.53780 8.73604 35102 ft 422 kts 179°
2026-05-08 10:04 45.47929 8.74329 35092 ft 421 kts 179°
2026-05-08 10:04 45.42123 8.75049 35077 ft 420 kts 179°
2026-05-08 10:05 45.36297 8.75769 35073 ft 419 kts 179°
2026-05-08 10:05 45.30479 8.76434 35076 ft 419 kts 180°
2026-05-08 10:06 45.24689 8.76950 35078 ft 420 kts 180°
2026-05-08 10:06 45.18951 8.77452 35072 ft 422 kts 180°
2026-05-08 10:07 45.13076 8.77982 35079 ft 424 kts 180°
2026-05-08 10:07 45.08359 8.78413 35076 ft 425 kts 180°
2026-05-08 10:08 45.02442 8.78954 35074 ft 427 kts 180°
2026-05-08 10:08 44.97514 8.79404 35079 ft 428 kts 180°
2026-05-08 10:09 44.91552 8.79947 35091 ft 428 kts 180°
2026-05-08 10:09 44.85594 8.80488 35081 ft 429 kts 180°
2026-05-08 10:10 44.79674 8.81025 35071 ft 429 kts 180°
2026-05-08 10:10 44.73713 8.81646 35062 ft 429 kts 178°
2026-05-08 10:11 44.67767 8.82445 35043 ft 429 kts 178°
2026-05-08 10:11 44.61817 8.83255 35037 ft 429 kts 178°
2026-05-08 10:12 44.55872 8.84044 35032 ft 429 kts 178°
2026-05-08 10:12 44.49921 8.84819 35013 ft 429 kts 178°
2026-05-08 10:13 44.44014 8.85585 35017 ft 429 kts 178°
2026-05-08 10:13 44.38066 8.86354 35014 ft 429 kts 178°
2026-05-08 10:14 44.32121 8.87121 35018 ft 429 kts 178°
2026-05-08 10:14 44.26168 8.87889 35023 ft 430 kts 178°
2026-05-08 10:15 44.20211 8.88655 35025 ft 430 kts 178°
2026-05-08 10:15 44.14237 8.89422 35023 ft 431 kts 178°
2026-05-08 10:16 44.08246 8.90189 35021 ft 432 kts 178°
2026-05-08 10:16 44.02282 8.90952 35021 ft 434 kts 179°
2026-05-08 10:17 43.96260 8.91720 35019 ft 435 kts 179°
2026-05-08 10:17 43.90230 8.92488 35017 ft 436 kts 179°
2026-05-08 10:18 43.84178 8.93258 35021 ft 437 kts 179°
2026-05-08 10:18 43.78111 8.94027 35019 ft 438 kts 179°
2026-05-08 10:19 43.72026 8.94798 35022 ft 439 kts 179°
2026-05-08 10:20 43.62900 8.95891 35019 ft 439 kts 182°
2026-05-08 10:20 43.56788 8.95920 35019 ft 439 kts 185°
2026-05-08 10:21 43.50658 8.95845 35020 ft 440 kts 185°
2026-05-08 10:21 43.44560 8.95829 35022 ft 442 kts 185°
2026-05-08 10:22 43.38400 8.95808 35022 ft 442 kts 187°
2026-05-08 10:22 43.32287 8.95181 35027 ft 440 kts 190°
2026-05-08 10:23 43.26171 8.94403 35021 ft 441 kts 190°
2026-05-08 10:23 43.20051 8.93657 35022 ft 442 kts 190°
2026-05-08 10:24 43.13908 8.92940 35022 ft 443 kts 190°
2026-05-08 10:24 43.07801 8.92237 35028 ft 444 kts 191°
2026-05-08 10:25 43.01642 8.91529 35025 ft 444 kts 191°
2026-05-08 10:25 42.95477 8.90820 35028 ft 445 kts 191°
2026-05-08 10:26 42.89299 8.90112 35027 ft 445 kts 191°
2026-05-08 10:26 42.83125 8.89405 35021 ft 445 kts 191°
2026-05-08 10:27 42.76953 8.88700 35016 ft 445 kts 191°
2026-05-08 10:27 42.70772 8.87995 35018 ft 445 kts 192°
2026-05-08 10:28 42.64636 8.87296 35009 ft 446 kts 192°
2026-05-08 10:28 42.58455 8.86593 35022 ft 446 kts 192°
2026-05-08 10:29 42.52259 8.85890 35017 ft 447 kts 192°
2026-05-08 10:29 42.46036 8.85185 35027 ft 449 kts 193°
2026-05-08 10:30 42.39796 8.84479 35014 ft 451 kts 193°
2026-05-08 10:30 42.33537 8.83773 35027 ft 451 kts 193°
2026-05-08 10:31 42.27324 8.83075 35012 ft 451 kts 193°
2026-05-08 10:31 42.21065 8.82373 34993 ft 451 kts 193°
2026-05-08 10:32 42.14823 8.81675 35002 ft 449 kts 193°
2026-05-08 10:32 42.08593 8.80981 34998 ft 448 kts 193°
2026-05-08 10:33 42.02376 8.80283 34987 ft 448 kts 193°
2026-05-08 10:33 41.96187 8.79596 34990 ft 445 kts 193°
2026-05-08 10:34 41.90018 8.78907 34992 ft 444 kts 193°
2026-05-08 10:34 41.83868 8.78223 34998 ft 443 kts 193°
2026-05-08 10:35 41.77722 8.77549 34999 ft 444 kts 191°
2026-05-08 10:35 41.71510 8.77835 34998 ft 452 kts 184°
2026-05-08 10:36 41.65236 8.78452 34998 ft 451 kts 184°
2026-05-08 10:36 41.58970 8.79031 34999 ft 450 kts 184°
2026-05-08 10:37 41.52771 8.79568 34987 ft 450 kts 184°
2026-05-08 10:37 41.46470 8.80108 34998 ft 449 kts 184°
2026-05-08 10:38 41.40269 8.80639 34997 ft 449 kts 184°
2026-05-08 10:38 41.34028 8.81247 34996 ft 453 kts 180°
2026-05-08 10:39 41.27848 8.83482 35006 ft 464 kts 169°
2026-05-08 10:39 41.21660 8.85022 34998 ft 443 kts 187°
2026-05-08 10:40 41.15513 8.85015 35008 ft 441 kts 189°
2026-05-08 10:40 41.09353 8.85003 34994 ft 442 kts 188°
2026-05-08 10:41 41.03227 8.85070 35000 ft 442 kts 188°
2026-05-08 10:41 40.97080 8.85153 34975 ft 442 kts 188°
2026-05-08 10:41 40.93971 8.85217 34359 ft 449 kts 187°
2026-05-08 10:42 40.90896 8.85306 33729 ft 447 kts 187°
2026-05-08 10:42 40.87784 8.85399 32976 ft 448 kts 187°
2026-05-08 10:42 40.84661 8.85486 32277 ft 447 kts 187°
2026-05-08 10:42 40.81553 8.85568 31536 ft 447 kts 187°
2026-05-08 10:43 40.78442 8.85750 30883 ft 448 kts 184°
2026-05-08 10:43 40.75322 8.86038 30117 ft 450 kts 184°
2026-05-08 10:43 40.72191 8.86339 29296 ft 450 kts 184°
2026-05-08 10:43 40.69096 8.86614 28689 ft 444 kts 184°
2026-05-08 10:44 40.66034 8.86872 28148 ft 438 kts 184°
2026-05-08 10:44 40.62999 8.87125 27560 ft 434 kts 184°
2026-05-08 10:44 40.60001 8.87374 27000 ft 429 kts 184°
2026-05-08 10:44 40.57035 8.87621 26439 ft 425 kts 184°
2026-05-08 10:45 40.54126 8.87862 25897 ft 421 kts 184°
2026-05-08 10:45 40.51210 8.88104 25360 ft 418 kts 184°
2026-05-08 10:45 40.48310 8.88344 24826 ft 416 kts 184°
2026-05-08 10:45 40.45429 8.88582 24289 ft 413 kts 184°
2026-05-08 10:46 40.42559 8.88819 23729 ft 412 kts 184°
2026-05-08 10:46 40.39692 8.89056 23096 ft 411 kts 184°
2026-05-08 10:46 40.36843 8.89292 22529 ft 408 kts 183°
2026-05-08 10:46 40.34023 8.89526 21961 ft 405 kts 183°
2026-05-08 10:47 40.31256 8.89755 21402 ft 402 kts 182°
2026-05-08 10:47 40.28466 8.89987 20843 ft 399 kts 182°
2026-05-08 10:47 40.25705 8.90215 20322 ft 396 kts 181°
2026-05-08 10:47 40.22967 8.90440 19804 ft 393 kts 181°
2026-05-08 10:48 40.20254 8.90662 19291 ft 390 kts 181°
2026-05-08 10:48 40.17555 8.90883 18784 ft 387 kts 180°
2026-05-08 10:48 40.14885 8.91101 18275 ft 384 kts 180°
2026-05-08 10:48 40.12215 8.91320 17694 ft 382 kts 180°
2026-05-08 10:49 40.09567 8.91536 17145 ft 380 kts 180°
2026-05-08 10:49 40.06939 8.91752 16621 ft 377 kts 179°
2026-05-08 10:49 40.04323 8.91966 16112 ft 374 kts 179°
2026-05-08 10:49 40.01757 8.92176 15619 ft 371 kts 179°
2026-05-08 10:50 39.99188 8.92385 15123 ft 369 kts 179°
2026-05-08 10:50 39.96634 8.92594 14635 ft 367 kts 179°
2026-05-08 10:50 39.94096 8.92801 14144 ft 365 kts 178°
2026-05-08 10:50 39.91561 8.93007 13640 ft 363 kts 178°
2026-05-08 10:51 39.89042 8.93213 13097 ft 361 kts 178°
2026-05-08 10:51 39.86544 8.93416 12592 ft 358 kts 178°
2026-05-08 10:51 39.84059 8.93618 12108 ft 356 kts 178°
2026-05-08 10:51 39.81641 8.94015 11620 ft 354 kts 168°
2026-05-08 10:52 39.79303 8.94999 11163 ft 353 kts 158°
2026-05-08 10:52 39.77165 8.96502 10927 ft 344 kts 148°
2026-05-08 10:52 39.75191 8.98165 10772 ft 333 kts 148°
2026-05-08 10:52 39.73283 8.99786 10625 ft 323 kts 148°
2026-05-08 10:53 39.71430 9.01346 10481 ft 309 kts 148°
2026-05-08 10:53 39.69667 9.02819 10342 ft 293 kts 148°
2026-05-08 10:53 39.67998 9.04204 10222 ft 277 kts 148°
2026-05-08 10:53 39.66402 9.05525 10125 ft 268 kts 148°
2026-05-08 10:54 39.64822 9.06737 9989 ft 260 kts 159°
2026-05-08 10:54 39.63031 9.07139 9565 ft 267 kts 179°
2026-05-08 10:54 39.61139 9.07162 9074 ft 275 kts 179°
2026-05-08 10:54 39.59213 9.07196 8542 ft 278 kts 179°
2026-05-08 10:55 39.57302 9.07237 8045 ft 277 kts 178°
2026-05-08 10:55 39.55373 9.07281 7537 ft 277 kts 178°
2026-05-08 10:55 39.53457 9.07118 7026 ft 278 kts 194°
2026-05-08 10:55 39.51726 9.06052 6652 ft 275 kts 212°
2026-05-08 10:56 39.50181 9.04608 6231 ft 272 kts 214°
2026-05-08 10:56 39.48670 9.03145 5818 ft 269 kts 215°
2026-05-08 10:56 39.47175 9.01701 5404 ft 267 kts 214°
2026-05-08 10:56 39.45692 9.00281 5028 ft 264 kts 214°
2026-05-08 10:57 39.44223 8.98885 4633 ft 260 kts 214°
2026-05-08 10:57 39.42764 8.97509 4255 ft 257 kts 214°
2026-05-08 10:57 39.39926 8.94840 3533 ft 250 kts 214°
2026-05-08 10:58 39.38507 8.93571 3193 ft 246 kts 204°
2026-05-08 10:58 39.36918 8.93141 2839 ft 231 kts 171°
2026-05-08 10:58 39.35456 8.93875 2486 ft 220 kts 147°
2026-05-08 10:58 39.34225 8.94992 2182 ft 211 kts 140°
2026-05-08 10:59 39.33136 8.96176 1900 ft 202 kts 137°
2026-05-08 10:59 39.32104 8.97364 1628 ft 194 kts 136°
2026-05-08 10:59 39.31125 8.98501 1370 ft 182 kts 136°
2026-05-08 10:59 39.30218 8.99551 1140 ft 168 kts 137°
2026-05-08 11:00 39.29660 9.00199 1018 ft 159 kts 137°
2026-05-08 11:00 39.28860 9.01134 818 ft 154 kts 137°
2026-05-08 11:00 39.28063 9.02072 627 ft 156 kts 140°
2026-05-08 11:00 39.27254 9.02997 404 ft 154 kts 140°
2026-05-08 11:01 39.26469 9.03908 174 ft 149 kts 142°
2026-05-08 11:01 39.25722 9.04771 16 ft 136 kts 140°
2026-05-08 11:01 39.25128 9.05451 14 ft 93 kts 137°
2026-05-08 11:01 39.24783 9.05851 15 ft 35 kts 137°
2026-05-08 11:02 39.24696 9.06079 15 ft 25 kts 67°
2026-05-08 11:02 39.24805 9.06285 14 ft 6 kts 333°
2026-05-08 11:02 39.24843 9.06253 14 ft 7 kts 327°
2026-05-08 11:03 39.24897 9.06207 14 ft 12 kts 323°
2026-05-08 11:03 39.24977 9.06122 14 ft 16 kts 317°
2026-05-08 11:03 39.25054 9.06017 14 ft 16 kts 312°
2026-05-08 11:03 39.25121 9.05921 14 ft 14 kts 311°
2026-05-08 11:04 39.25190 9.05837 14 ft 13 kts 318°
2026-05-08 11:04 39.25260 9.05758 14 ft 14 kts 319°
2026-05-08 11:04 39.25339 9.05697 14 ft 8 kts 20°
2026-05-08 11:04 39.25377 9.05750 14 ft 8 kts 50°
2026-05-08 11:05 39.25386 9.05788 14 ft 3 kts 127°
2026-05-08 11:05 39.25362 9.05815 14 ft 7 kts 141°
2026-05-08 11:05 39.25338 9.05839 14 ft 0 kts 142°